sat.trackr.live / text

‹ back to catalog

STARLINK-11540 [DTC]

NORAD 62564 · 2025-006L

PAYLOAD ACTIVE UNKNOWN

§ Identity

Operator
Country
US
Launch date
2025-01-10
Launch site
AFETR
Launch vehicle
Mass (kg)
RCS (m²)

Purposes: comms

External: N2YO · Heavens-Above · Gunter

§ Orbital elements

Epoch: 2026-05-25T00:12:49.245984Z

Period
91.67 min
Inclination
43.0038°
Eccentricity
0.0003690
Mean motion
15.70842093 rev/d
Perigee alt
354.0 km
Apogee alt
359.0 km
Semi-major
6,734.6 km
B*
1.1359e-3
RAAN
40.0239°
Arg perigee
283.0644°
Mean anomaly
76.9811°
Rev number
7,860

§ Raw data

STARLINK-11540 [DTC]1 62564U 25006L   26145.00890331  .00147969  00000+0  11359-2 0  99942 62564  43.0038  40.0239 0003690 283.0644  76.9811 15.70842093 78608

JSON: /api/v1/satellites/62564 · /tle

For live sub-satellite position, see the globe view (requires WebGL).

§ Visibility from observer

Set your observer location to see the next 7 days of passes ≥ 10°. The values pass through the URL so the page stays shareable.

No JS? Fill the form by hand. The geolocation button needs JavaScript.